| time (UTC) | temp C | wind direction | speed KPH | gust KPH | rain 1hr cm | rain 24hr cm | rain mn cm | humidity % | barometer mb |
| 20260507042941 | 6 | 351 | 1.6 | 8.0 | 0.00 | 0.41 | 0.03 | 97 | 1011.9 |
| 20260507042442 | 6 | 55 | 1.6 | 6.4 | 0.00 | 0.41 | 0.03 | 97 | 1011.8 |
| 20260507041939 | 6 | 46 | 1.6 | 6.4 | 0.00 | 0.41 | 0.03 | 97 | 1011.8 |
| 20260507041705 | 6 | 338 | 1.6 | 8.0 | 0.00 | 0.41 | 0.03 | 97 | 1011.8 |
| 20260507040936 | 6 | 331 | 3.2 | 12.9 | 0.00 | 0.41 | 0.03 | 97 | 1011.8 |
| 20260507040435 | 6 | 36 | 1.6 | 12.9 | 0.00 | 0.41 | 0.03 | 97 | 1011.8 |
| 20260507035935 | 6 | 14 | 1.6 | 4.8 | 0.00 | 0.41 | 0.03 | 97 | 1011.6 |
| 20260507035436 | 6 | 45 | 3.2 | 4.8 | 0.00 | 0.41 | 0.03 | 96 | 1011.6 |
| 20260507034935 | 6 | 42 | 3.2 | 4.8 | 0.00 | 0.41 | 0.03 | 97 | 1011.6 |
| 20260507034432 | 6 | 11 | 1.6 | 4.8 | 0.00 | 0.41 | 0.03 | 96 | 1011.6 |
| 20260507033929 | 6 | 22 | 1.6 | 4.8 | 0.00 | 0.41 | 0.03 | 96 | 1011.5 |
| 20260507033429 | 6 | 55 | 3.2 | 6.4 | 0.00 | 0.41 | 0.03 | 96 | 1011.5 |
| 20260507033202 | 6 | 41 | 1.6 | 6.4 | 0.00 | 0.41 | 0.03 | 96 | 1011.6 |
| 20260507032423 | 6 | 44 | 1.6 | 6.4 | 0.00 | 0.41 | 0.03 | 96 | 1011.6 |
| 20260507031915 | 6 | 55 | 1.6 | 8.0 | 0.00 | 0.41 | 0.03 | 96 | 1011.5 |
| 20260507031410 | 6 | 35 | 1.6 | 8.0 | 0.00 | 0.41 | 0.03 | 96 | 1011.6 |
| 20260507031209 | 6 | 329 | 1.6 | 4.8 | 0.00 | 0.41 | 0.03 | 96 | 1011.6 |
| 20260507030654 | 6 | 44 | 1.6 | 6.4 | 0.00 | 0.41 | 0.03 | 96 | 1011.6 |
| 20260507025923 | 6 | 355 | 1.6 | 8.0 | 0.00 | 0.41 | 0.03 | 96 | 1011.5 |
| 20260507024907 | 6 | 310 | 1.6 | 6.4 | 0.00 | 0.41 | 0.03 | 97 | 1011.4 |
| 20260507024408 | 6 | 44 | 1.6 | 6.4 | 0.00 | 0.41 | 0.03 | 97 | 1011.5 |
| 20260507023908 | 6 | 51 | 1.6 | 4.8 | 0.03 | 0.41 | 0.03 | 97 | 1011.5 |
| 20260507023408 | 6 | 15 | 1.6 | 4.8 | 0.03 | 0.41 | 0.03 | 97 | 1011.5 |
| 20260507022905 | 6 | 10 | 1.6 | 4.8 | 0.03 | 0.41 | 0.03 | 96 | 1011.5 |
| 20260507022405 | 6 | 335 | 1.6 | 4.8 | 0.03 | 0.41 | 0.03 | 96 | 1011.4 |
| 20260507021905 | 6 | 26 | 1.6 | 8.0 | 0.03 | 0.41 | 0.03 | 96 | 1011.3 |
| 20260507021404 | 6 | 51 | 1.6 | 8.0 | 0.03 | 0.41 | 0.03 | 96 | 1011.2 |
| 20260507020903 | 6 | 355 | 1.6 | 6.4 | 0.03 | 0.41 | 0.03 | 96 | 1011.3 |
| 20260507020403 | 7 | 29 | 1.6 | 6.4 | 0.03 | 0.41 | 0.03 | 96 | 1011.3 |
| 20260507015903 | 6 | 300 | 1.6 | 6.4 | 0.03 | 0.41 | 0.03 | 96 | 1011.2 |
| 20260507015403 | 7 | 38 | 1.6 | 8.0 | 0.03 | 0.41 | 0.03 | 96 | 1011.2 |
| 20260507014901 | 7 | 351 | 1.6 | 8.0 | 0.03 | 0.41 | 0.03 | 96 | 1011.1 |
| 20260507014402 | 7 | 32 | 1.6 | 8.0 | 0.03 | 0.41 | 0.03 | 96 | 1011.1 |
| 20260507014134 | 7 | 22 | 1.6 | 4.8 | 0.00 | 0.38 | 0.00 | 96 | 1011.2 |
| 20260507013351 | 7 | 339 | 1.6 | 6.4 | 0.00 | 0.38 | 0.00 | 96 | 1011.1 |
| 20260507013119 | 7 | 57 | 1.6 | 6.4 | 0.00 | 0.38 | 0.00 | 96 | 1011.1 |
| 20260507012339 | 7 | 11 | 1.6 | 4.8 | 0.00 | 0.38 | 0.00 | 96 | 1011.0 |
| 20260507011833 | 7 | 333 | 1.6 | 4.8 | 0.00 | 0.38 | 0.00 | 96 | 1010.9 |
| 20260507011331 | 7 | 335 | 1.6 | 4.8 | 0.00 | 0.38 | 0.00 | 96 | 1010.9 |
| 20260507010831 | 7 | 40 | 1.6 | 4.8 | 0.00 | 0.38 | 0.00 | 96 | 1011.0 |
| 20260507010349 | 7 | 5 | 1.6 | 3.2 | 0.00 | 0.38 | 0.00 | 96 | 1010.9 |
| 20260507005335 | 7 | 44 | 1.6 | 4.8 | 0.00 | 0.38 | 0.00 | 96 | 1010.9 |
| 20260507004834 | 7 | 38 | 1.6 | 4.8 | 0.00 | 0.38 | 0.00 | 96 | 1010.9 |
| 20260507004333 | 7 | 15 | 1.6 | 4.8 | 0.00 | 0.38 | 0.00 | 96 | 1010.8 |
| 20260507003831 | 7 | 53 | 1.6 | 4.8 | 0.00 | 0.38 | 0.00 | 96 | 1010.8 |
| 20260507003331 | 7 | 336 | 1.6 | 4.8 | 0.00 | 0.38 | 0.00 | 96 | 1010.7 |
| 20260507003058 | 7 | 329 | 1.6 | 4.8 | 0.00 | 0.38 | 0.00 | 96 | 1010.7 |
| 20260507002330 | 7 | 51 | 1.6 | 9.7 | 0.00 | 0.38 | 0.00 | 96 | 1010.6 |
| 20260507002059 | 7 | 53 | 1.6 | 9.7 | 0.00 | 0.38 | 0.00 | 96 | 1010.6 |
| 20260507001329 | 7 | 59 | 1.6 | 4.8 | 0.00 | 0.38 | 0.00 | 96 | 1010.6 |
| 20260507000829 | 7 | 290 | 1.6 | 4.8 | 0.00 | 0.38 | 0.00 | 96 | 1010.7 |
| 20260507000329 | 7 | 347 | 1.6 | 4.8 | 0.00 | 0.38 | 0.00 | 96 | 1010.6 |
| 20260506235830 | 7 | 251 | 1.6 | 6.4 | 0.00 | 0.38 | 0.00 | 96 | 1010.6 |
| 20260506235330 | 7 | 285 | 1.6 | 6.4 | 0.00 | 0.38 | 0.00 | 96 | 1010.5 |
| 20260506234827 | 7 | 346 | 1.6 | 3.2 | 0.00 | 0.38 | 0.00 | 96 | 1010.5 |
| 20260506234332 | 7 | 42 | 1.6 | 8.0 | 0.00 | 0.38 | 0.00 | 96 | 1010.5 |
| 20260506233830 | 7 | 22 | 3.2 | 9.7 | 0.00 | 0.38 | 0.00 | 96 | 1010.5 |
| 20260506233328 | 7 | 41 | 1.6 | 9.7 | 0.00 | 0.38 | 0.00 | 96 | 1010.4 |
| 20260506232826 | 7 | 312 | 1.6 | 4.8 | 0.00 | 0.38 | 0.00 | 96 | 1010.5 |
| 20260506232325 | 7 | 15 | 1.6 | 6.4 | 0.00 | 0.38 | 0.00 | 96 | 1010.5 |
| 20260506231826 | 7 | 355 | 1.6 | 6.4 | 0.00 | 0.38 | 0.00 | 96 | 1010.5 |
| 20260506231325 | 7 | 32 | 1.6 | 4.8 | 0.00 | 0.38 | 0.00 | 96 | 1010.5 |
| 20260506230826 | 7 | 336 | 1.6 | 6.4 | 0.00 | 0.38 | 0.00 | 96 | 1010.5 |
| 20260506230325 | 7 | 28 | 1.6 | 6.4 | 0.00 | 0.38 | 0.00 | 96 | 1010.5 |
| 20260506225826 | 7 | 333 | 1.6 | 6.4 | 0.00 | 0.38 | 0.00 | 96 | 1010.4 |
| 20260506224825 | 7 | 355 | 1.6 | 6.4 | 0.00 | 0.38 | 0.00 | 96 | 1010.3 |
| 20260506224554 | 7 | 0 | 1.6 | 6.4 | 0.00 | 0.38 | 0.00 | 96 | 1010.3 |
| 20260506223325 | 7 | 331 | 1.6 | 4.8 | 0.03 | 0.38 | 0.00 | 96 | 1010.4 |
| 20260506222826 | 7 | 327 | 1.6 | 6.4 | 0.03 | 0.38 | 0.00 | 96 | 1010.4 |
| 20260506222320 | 7 | 337 | 1.6 | 6.4 | 0.03 | 0.38 | 0.00 | 96 | 1010.2 |
| 20260506221820 | 7 | 307 | 1.6 | 4.8 | 0.03 | 0.38 | 0.00 | 96 | 1010.2 |
| 20260506221318 | 7 | 338 | 1.6 | 4.8 | 0.03 | 0.38 | 0.00 | 96 | 1010.3 |
| 20260506220814 | 7 | 346 | 1.6 | 4.8 | 0.03 | 0.41 | 0.00 | 96 | 1010.0 |
| 20260506220315 | 7 | 339 | 1.6 | 4.8 | 0.03 | 0.41 | 0.00 | 96 | 1010.0 |
| 20260506215812 | 7 | 35 | 0.0 | 3.2 | 0.03 | 0.41 | 0.41 | 96 | 1009.9 |
| 20260506215313 | 7 | 311 | 0.0 | 3.2 | 0.03 | 0.41 | 0.41 | 96 | 1009.9 |
| 20260506214812 | 7 | 344 | 1.6 | 3.2 | 0.03 | 0.41 | 0.41 | 96 | 1009.9 |
| 20260506214313 | 7 | 327 | 1.6 | 3.2 | 0.03 | 0.41 | 0.38 | 96 | 1009.9 |
| 20260506214034 | 7 | 43 | 1.6 | 4.8 | 0.00 | 0.38 | 0.38 | 96 | 1009.9 |
| 20260506213311 | 7 | 24 | 1.6 | 6.4 | 0.00 | 0.38 | 0.38 | 96 | 1009.9 |
| 20260506212807 | 7 | 59 | 1.6 | 6.4 | 0.00 | 0.38 | 0.38 | 96 | 1009.9 |
| 20260506212307 | 7 | 23 | 1.6 | 3.2 | 0.00 | 0.38 | 0.38 | 96 | 1009.9 |
| 20260506211807 | 7 | 313 | 1.6 | 4.8 | 0.00 | 0.38 | 0.38 | 96 | 1009.8 |
| 20260506211307 | 7 | 311 | 1.6 | 4.8 | 0.00 | 0.41 | 0.38 | 96 | 1009.8 |
| 20260506210809 | 7 | 46 | 1.6 | 4.8 | 0.00 | 0.41 | 0.38 | 96 | 1009.8 |
| 20260506210307 | 7 | 343 | 1.6 | 4.8 | 0.00 | 0.41 | 0.38 | 96 | 1009.7 |
| 20260506205806 | 7 | 306 | 1.6 | 4.8 | 0.00 | 0.41 | 0.38 | 96 | 1009.6 |
| 20260506205539 | 7 | 37 | 1.6 | 4.8 | 0.00 | 0.43 | 0.38 | 96 | 1009.6 |
| 20260506204807 | 7 | 32 | 1.6 | 4.8 | 0.00 | 0.43 | 0.38 | 96 | 1009.6 |
| 20260506203803 | 7 | 40 | 1.6 | 6.4 | 0.00 | 0.46 | 0.38 | 96 | 1009.5 |
| 20260506203303 | 7 | 324 | 1.6 | 6.4 | 0.03 | 0.51 | 0.38 | 96 | 1009.4 |
| 20260506202802 | 7 | 35 | 1.6 | 6.4 | 0.03 | 0.51 | 0.38 | 96 | 1009.4 |
| 20260506202306 | 7 | 330 | 1.6 | 6.4 | 0.03 | 0.56 | 0.38 | 96 | 1009.4 |
| 20260506201803 | 7 | 30 | 1.6 | 4.8 | 0.03 | 0.58 | 0.38 | 96 | 1009.4 |
| 20260506201529 | 7 | 266 | 1.6 | 9.7 | 0.03 | 0.61 | 0.38 | 96 | 1009.4 |
| 20260506200802 | 7 | 78 | 1.6 | 9.7 | 0.03 | 0.61 | 0.38 | 96 | 1009.4 |
| 20260506200303 | 7 | 46 | 1.6 | 6.4 | 0.03 | 0.61 | 0.38 | 96 | 1009.3 |
| 20260506195803 | 7 | 51 | 1.6 | 6.4 | 0.03 | 0.66 | 0.38 | 96 | 1009.3 |
| 20260506195536 | 7 | 303 | 1.6 | 6.4 | 0.03 | 0.69 | 0.38 | 96 | 1009.2 |
| 20260506194803 | 7 | 22 | 1.6 | 16.1 | 0.03 | 0.71 | 0.38 | 96 | 1009.1 |
| 20260506194301 | 7 | 350 | 3.2 | 16.1 | 0.03 | 0.71 | 0.38 | 96 | 1009.1 |
| 20260506193803 | 7 | 323 | 1.6 | 9.7 | 0.03 | 0.71 | 0.36 | 96 | 1009.0 |
| 20260506193303 | 7 | 42 | 1.6 | 9.7 | 0.00 | 0.71 | 0.36 | 96 | 1008.9 |
| 20260506192802 | 7 | 75 | 3.2 | 8.0 | 0.00 | 0.71 | 0.36 | 96 | 1008.9 |
| 20260506192306 | 7 | 30 | 1.6 | 8.0 | 0.00 | 0.74 | 0.36 | 96 | 1008.8 |
| 20260506191800 | 7 | 313 | 1.6 | 8.0 | 0.00 | 0.79 | 0.36 | 96 | 1008.8 |
| 20260506191304 | 8 | 0 | 3.2 | 9.7 | 0.00 | 0.79 | 0.36 | 96 | 1008.9 |
| 20260506190801 | 7 | 284 | 3.2 | 9.7 | 0.00 | 0.81 | 0.36 | 96 | 1008.7 |
| 20260506190529 | 8 | 23 | 3.2 | 14.5 | 0.00 | 0.84 | 0.36 | 96 | 1008.6 |
| 20260506185758 | 8 | 323 | 1.6 | 14.5 | 0.00 | 0.86 | 0.36 | 96 | 1008.6 |
| 20260506185258 | 8 | 321 | 3.2 | 9.7 | 0.00 | 0.89 | 0.36 | 96 | 1008.5 |
| 20260506184758 | 8 | 40 | 3.2 | 12.9 | 0.00 | 0.89 | 0.36 | 96 | 1008.5 |
| 20260506184524 | 8 | 298 | 3.2 | 12.9 | 0.00 | 0.89 | 0.36 | 96 | 1008.5 |
| 20260506183527 | 8 | 321 | 1.6 | 6.4 | 0.00 | 0.91 | 0.36 | 96 | 1008.4 |
| 20260506182756 | 8 | 37 | 1.6 | 4.8 | 0.00 | 0.94 | 0.36 | 96 | 1008.3 |
| 20260506182257 | 8 | 49 | 1.6 | 4.8 | 0.00 | 0.94 | 0.36 | 96 | 1008.2 |
| 20260506181757 | 8 | 43 | 1.6 | 4.8 | 0.00 | 0.94 | 0.36 | 96 | 1008.3 |
| 20260506181253 | 8 | 329 | 1.6 | 8.0 | 0.00 | 0.97 | 0.36 | 96 | 1008.3 |
| 20260506180754 | 8 | 34 | 1.6 | 8.0 | 0.00 | 0.97 | 0.36 | 96 | 1008.2 |
| 20260506180253 | 8 | 324 | 1.6 | 8.0 | 0.03 | 0.97 | 0.36 | 96 | 1008.2 |
| 20260506175754 | 8 | 13 | 1.6 | 12.9 | 0.03 | 0.99 | 0.36 | 96 | 1008.2 |
| 20260506175252 | 8 | 335 | 3.2 | 16.1 | 0.03 | 0.99 | 0.36 | 96 | 1008.3 |
| 20260506174749 | 8 | 325 | 3.2 | 16.1 | 0.03 | 0.99 | 0.36 | 96 | 1008.2 |
| 20260506174250 | 8 | 284 | 3.2 | 11.3 | 0.03 | 0.99 | 0.36 | 96 | 1008.2 |
| 20260506174018 | 8 | 22 | 3.2 | 11.3 | 0.03 | 0.99 | 0.36 | 96 | 1008.1 |
| 20260506173250 | 8 | 12 | 1.6 | 11.3 | 0.03 | 0.99 | 0.36 | 96 | 1008.1 |
| 20260506172748 | 8 | 54 | 1.6 | 6.4 | 0.03 | 1.02 | 0.36 | 96 | 1008.1 |
| 20260506172246 | 8 | 0 | 1.6 | 6.4 | 0.03 | 1.02 | 0.36 | 96 | 1008.1 |
| 20260506171746 | 8 | 337 | 1.6 | 6.4 | 0.03 | 1.04 | 0.36 | 96 | 1008.1 |
| 20260506171245 | 8 | 18 | 1.6 | 4.8 | 0.03 | 1.04 | 0.36 | 96 | 1008.0 |
| 20260506170746 | 8 | 5 | 1.6 | 6.4 | 0.03 | 1.04 | 0.36 | 96 | 1008.0 |
| 20260506170247 | 8 | 283 | 3.2 | 11.3 | 0.00 | 1.04 | 0.33 | 95 | 1008.0 |
| 20260506165746 | 8 | 90 | 3.2 | 11.3 | 0.00 | 1.04 | 0.33 | 95 | 1007.9 |
| 20260506165246 | 8 | 317 | 3.2 | 12.9 | 0.00 | 1.04 | 0.33 | 95 | 1007.9 |
| 20260506164746 | 8 | 315 | 3.2 | 12.9 | 0.00 | 1.07 | 0.33 | 96 | 1007.9 |
| 20260506164245 | 8 | 319 | 3.2 | 14.5 | 0.00 | 1.07 | 0.33 | 96 | 1007.9 |
| 20260506163746 | 8 | 292 | 3.2 | 14.5 | 0.00 | 1.09 | 0.33 | 95 | 1007.8 |
| 20260506163246 | 8 | 53 | 3.2 | 8.0 | 0.00 | 1.09 | 0.33 | 95 | 1007.8 |
| 20260506162747 | 8 | 227 | 1.6 | 8.0 | 0.00 | 1.09 | 0.33 | 95 | 1007.7 |
| 20260506162241 | 8 | 248 | 1.6 | 6.4 | 0.03 | 1.12 | 0.33 | 95 | 1007.7 |
| 20260506161742 | 8 | 88 | 3.2 | 12.9 | 0.03 | 1.12 | 0.33 | 95 | 1007.7 |
| 20260506161242 | 8 | 19 | 3.2 | 12.9 | 0.03 | 1.17 | 0.33 | 96 | 1007.6 |
| 20260506160742 | 8 | 311 | 3.2 | 16.1 | 0.03 | 1.22 | 0.33 | 96 | 1007.7 |
| 20260506160242 | 8 | 14 | 3.2 | 16.1 | 0.03 | 1.27 | 0.33 | 95 | 1007.7 |
| 20260506155741 | 9 | 321 | 1.6 | 8.0 | 0.03 | 1.37 | 0.33 | 95 | 1007.6 |
| 20260506155242 | 9 | 55 | 1.6 | 6.4 | 0.03 | 1.40 | 0.33 | 95 | 1007.7 |
| 20260506154742 | 9 | 50 | 3.2 | 6.4 | 0.03 | 1.42 | 0.33 | 95 | 1007.6 |
| 20260506154242 | 9 | 298 | 1.6 | 6.4 | 0.03 | 1.47 | 0.33 | 95 | 1007.5 |
| 20260506153737 | 9 | 45 | 3.2 | 14.5 | 0.03 | 1.57 | 0.33 | 95 | 1007.7 |
| 20260506153239 | 9 | 306 | 3.2 | 14.5 | 0.05 | 1.65 | 0.33 | 95 | 1007.4 |
| 20260506152738 | 9 | 319 | 1.6 | 12.9 | 0.05 | 1.65 | 0.33 | 95 | 1007.5 |
| 20260506152238 | 9 | 251 | 1.6 | 12.9 | 0.03 | 1.65 | 0.33 | 95 | 1007.4 |
| 20260506152011 | 9 | 336 | 1.6 | 9.7 | 0.03 | 1.65 | 0.33 | 95 | 1007.4 |
| 20260506151238 | 9 | 355 | 1.6 | 11.3 | 0.03 | 1.65 | 0.33 | 95 | 1007.4 |
| 20260506150738 | 9 | 39 | 1.6 | 11.3 | 0.03 | 1.65 | 0.33 | 95 | 1007.3 |
| 20260506150237 | 9 | 53 | 1.6 | 4.8 | 0.03 | 1.65 | 0.33 | 95 | 1007.2 |
| 20260506145739 | 9 | 47 | 1.6 | 9.7 | 0.03 | 1.65 | 0.33 | 95 | 1007.2 |
| 20260506145232 | 9 | 331 | 1.6 | 9.7 | 0.03 | 1.65 | 0.33 | 95 | 1007.3 |
| 20260506144731 | 9 | 320 | 1.6 | 12.9 | 0.03 | 1.65 | 0.33 | 95 | 1007.2 |
| 20260506144232 | 9 | 316 | 3.2 | 19.3 | 0.03 | 1.68 | 0.33 | 95 | 1007.2 |
| 20260506143733 | 9 | 323 | 3.2 | 19.3 | 0.03 | 1.68 | 0.33 | 95 | 1007.1 |
| 20260506143231 | 9 | 329 | 1.6 | 8.0 | 0.00 | 1.65 | 0.30 | 95 | 1007.2 |
| 20260506142732 | 10 | 33 | 3.2 | 8.0 | 0.00 | 1.65 | 0.30 | 95 | 1007.2 |
| 20260506142232 | 10 | 29 | 3.2 | 14.5 | 0.00 | 1.68 | 0.30 | 95 | 1007.2 |
| 20260506142002 | 10 | 355 | 3.2 | 14.5 | 0.00 | 1.68 | 0.30 | 95 | 1007.1 |
| 20260506141229 | 10 | 311 | 3.2 | 17.7 | 0.00 | 1.70 | 0.30 | 95 | 1007.1 |
| 20260506140730 | 10 | 283 | 3.2 | 17.7 | 0.00 | 1.70 | 0.30 | 95 | 1006.9 |
| 20260506140230 | 10 | 283 | 3.2 | 11.3 | 0.00 | 1.70 | 0.30 | 95 | 1006.9 |
| 20260506135730 | 10 | 306 | 3.2 | 11.3 | 0.00 | 1.73 | 0.30 | 95 | 1006.9 |
| 20260506135229 | 10 | 0 | 3.2 | 9.7 | 0.00 | 1.73 | 0.30 | 95 | 1006.9 |
| 20260506134730 | 10 | 229 | 1.6 | 9.7 | 0.00 | 1.73 | 0.30 | 95 | 1007.0 |
| 20260506134229 | 10 | 348 | 1.6 | 9.7 | 0.00 | 1.73 | 0.30 | 95 | 1007.1 |
| 20260506133728 | 10 | 22 | 1.6 | 11.3 | 0.00 | 1.73 | 0.30 | 95 | 1007.0 |
| 20260506133225 | 10 | 324 | 3.2 | 11.3 | 0.00 | 1.73 | 0.30 | 95 | 1006.9 |
| 20260506132719 | 10 | 341 | 3.2 | 12.9 | 0.00 | 1.73 | 0.30 | 95 | 1006.9 |
| 20260506132212 | 10 | 29 | 3.2 | 12.9 | 0.00 | 1.73 | 0.30 | 95 | 1006.9 |
| 20260506131711 | 10 | 335 | 1.6 | 9.7 | 0.00 | 1.73 | 0.30 | 95 | 1006.8 |
| 20260506131213 | 10 | 291 | 1.6 | 9.7 | 0.00 | 1.73 | 0.30 | 95 | 1006.7 |
| 20260506130712 | 10 | 43 | 3.2 | 8.0 | 0.03 | 1.73 | 0.30 | 94 | 1006.7 |
| 20260506130209 | 10 | 52 | 3.2 | 14.5 | 0.03 | 1.73 | 0.30 | 95 | 1006.7 |
| 20260506125710 | 10 | 344 | 3.2 | 14.5 | 0.03 | 1.73 | 0.30 | 95 | 1006.6 |
| 20260506124705 | 11 | 5 | 3.2 | 14.5 | 0.03 | 1.73 | 0.30 | 95 | 1006.6 |
| 20260506124439 | 11 | 289 | 3.2 | 12.9 | 0.03 | 1.73 | 0.30 | 95 | 1006.6 |
| 20260506123705 | 11 | 317 | 3.2 | 12.9 | 0.03 | 1.73 | 0.30 | 96 | 1006.5 |
| 20260506123206 | 11 | 340 | 3.2 | 14.5 | 0.03 | 1.73 | 0.30 | 96 | 1006.5 |
| 20260506122705 | 10 | 337 | 3.2 | 14.5 | 0.03 | 1.73 | 0.30 | 95 | 1006.5 |
| 20260506122436 | 10 | 254 | 1.6 | 8.0 | 0.03 | 1.73 | 0.30 | 95 | 1006.5 |
| 20260506121705 | 10 | 342 | 3.2 | 8.0 | 0.03 | 1.73 | 0.30 | 95 | 1006.6 |
| 20260506120702 | 11 | 290 | 3.2 | 11.3 | 0.00 | 1.70 | 0.28 | 95 | 1006.3 |
| 20260506120201 | 11 | 347 | 1.6 | 11.3 | 0.00 | 1.70 | 0.28 | 95 | 1006.3 |
| 20260506115704 | 11 | 296 | 1.6 | 6.4 | 0.03 | 1.70 | 0.28 | 95 | 1006.3 |
| 20260506115203 | 11 | 275 | 1.6 | 11.3 | 0.03 | 1.70 | 0.28 | 95 | 1006.2 |
| 20260506114151 | 11 | 239 | 3.2 | 11.3 | 0.05 | 1.70 | 0.28 | 95 | 1006.1 |
| 20260506113646 | 11 | 325 | 1.6 | 11.3 | 0.05 | 1.70 | 0.28 | 95 | 1006.1 |
| 20260506113140 | 11 | 5 | 1.6 | 8.0 | 0.05 | 1.70 | 0.28 | 96 | 1006.1 |
| 20260506112635 | 11 | 328 | 1.6 | 6.4 | 0.08 | 1.70 | 0.28 | 96 | 1006.1 |
| 20260506111631 | 11 | 313 | 1.6 | 6.4 | 0.13 | 1.70 | 0.28 | 96 | 1006.1 |
| 20260506111132 | 11 | 47 | 1.6 | 9.7 | 0.13 | 1.70 | 0.28 | 96 | 1006.1 |
| 20260506110900 | 11 | 313 | 3.2 | 9.7 | 0.13 | 1.70 | 0.28 | 96 | 1006.0 |
| 20260506110146 | 11 | 294 | 3.2 | 9.7 | 0.13 | 1.70 | 0.28 | 96 | 1006.0 |
| 20260506105632 | 11 | 53 | 1.6 | 4.8 | 0.10 | 1.68 | 0.25 | 96 | 1006.0 |
| 20260506105132 | 11 | 31 | 1.6 | 4.8 | 0.10 | 1.68 | 0.25 | 96 | 1006.1 |
| 20260506104634 | 11 | 40 | 1.6 | 3.2 | 0.10 | 1.68 | 0.25 | 96 | 1006.0 |
| 20260506104132 | 11 | 324 | 1.6 | 4.8 | 0.08 | 1.65 | 0.23 | 95 | 1006.0 |
| 20260506103635 | 11 | 287 | 1.6 | 4.8 | 0.08 | 1.65 | 0.23 | 96 | 1006.0 |
| 20260506103132 | 11 | 301 | 1.6 | 3.2 | 0.05 | 1.65 | 0.23 | 96 | 1006.1 |
| 20260506102631 | 11 | 49 | 1.6 | 3.2 | 0.05 | 1.63 | 0.20 | 96 | 1006.0 |
| 20260506102131 | 11 | 13 | 0.0 | 3.2 | 0.03 | 1.60 | 0.18 | 96 | 1005.9 |
| 20260506101901 | 11 | 329 | 0.0 | 3.2 | 0.00 | 1.57 | 0.15 | 96 | 1006.0 |
| 20260506101130 | 11 | 61 | 0.0 | 3.2 | 0.00 | 1.57 | 0.15 | 96 | 1005.9 |
| 20260506100630 | 11 | 321 | 0.0 | 3.2 | 0.00 | 1.57 | 0.15 | 96 | 1005.9 |
| 20260506100130 | 11 | 315 | 1.6 | 4.8 | 0.00 | 1.57 | 0.15 | 96 | 1005.9 |
| 20260506095625 | 11 | 32 | 1.6 | 6.4 | 0.03 | 1.57 | 0.15 | 96 | 1005.9 |
| 20260506095125 | 11 | 298 | 1.6 | 9.7 | 0.03 | 1.57 | 0.15 | 96 | 1005.7 |
| 20260506094625 | 11 | 339 | 1.6 | 9.7 | 0.03 | 1.57 | 0.15 | 96 | 1005.8 |
| 20260506094125 | 11 | 5 | 1.6 | 6.4 | 0.03 | 1.57 | 0.15 | 96 | 1005.7 |
| 20260506093625 | 10 | 336 | 1.6 | 6.4 | 0.03 | 1.57 | 0.15 | 96 | 1005.7 |
| 20260506093356 | 10 | 331 | 1.6 | 4.8 | 0.03 | 1.57 | 0.15 | 96 | 1005.7 |
| 20260506092623 | 10 | 355 | 0.0 | 3.2 | 0.03 | 1.57 | 0.15 | 96 | 1005.6 |
| 20260506092125 | 10 | 355 | 1.6 | 3.2 | 0.03 | 1.57 | 0.15 | 96 | 1005.7 |
| 20260506091623 | 10 | 348 | 1.6 | 3.2 | 0.03 | 1.57 | 0.15 | 95 | 1005.7 |
| 20260506091121 | 10 | 348 | 1.6 | 3.2 | 0.03 | 1.57 | 0.15 | 96 | 1005.7 |
| 20260506090619 | 11 | 350 | 0.0 | 6.4 | 0.03 | 1.57 | 0.15 | 96 | 1005.7 |
| 20260506090125 | 11 | 339 | 0.0 | 6.4 | 0.03 | 1.57 | 0.15 | 96 | 1005.6 |
| 20260506085615 | 11 | 340 | 0.0 | 3.2 | 0.00 | 1.55 | 0.15 | 96 | 1005.6 |
| 20260506085343 | 11 | 345 | 0.0 | 3.2 | 0.00 | 1.55 | 0.15 | 96 | 1005.5 |
| 20260506084612 | 11 | 12 | 1.6 | 3.2 | 0.00 | 1.55 | 0.15 | 96 | 1005.6 |
| 20260506084109 | 10 | 351 | 0.0 | 3.2 | 0.00 | 1.55 | 0.15 | 96 | 1005.4 |
| 20260506083607 | 10 | 355 | 0.0 | 3.2 | 0.00 | 1.55 | 0.15 | 96 | 1005.4 |
| 20260506083339 | 10 | 340 | 0.0 | 3.2 | 0.00 | 1.55 | 0.15 | 96 | 1005.4 |
| 20260506082612 | 10 | 340 | 1.6 | 3.2 | 0.00 | 1.55 | 0.15 | 96 | 1005.4 |
| 20260506082111 | 10 | 340 | 0.0 | 3.2 | 0.00 | 1.55 | 0.15 | 96 | 1005.4 |
| 20260506081606 | 10 | 288 | 0.0 | 3.2 | 0.00 | 1.55 | 0.15 | 96 | 1005.5 |
| 20260506081105 | 10 | 351 | 0.0 | 3.2 | 0.00 | 1.55 | 0.15 | 96 | 1005.4 |
| 20260506080604 | 10 | 351 | 0.0 | 3.2 | 0.00 | 1.55 | 0.15 | 96 | 1005.4 |
| 20260506080104 | 10 | 338 | 1.6 | 4.8 | 0.00 | 1.55 | 0.15 | 96 | 1005.4 |
| 20260506073058 | 10 | 331 | 0.0 | 1.6 | 0.00 | 1.55 | 0.15 | 96 | 1005.3 |
| 20260506072555 | 10 | 327 | 0.0 | 1.6 | 0.00 | 1.55 | 0.15 | 96 | 1005.2 |
| 20260506072053 | 10 | 305 | 0.0 | 1.6 | 0.00 | 1.55 | 0.15 | 96 | 1005.2 |
| 20260506071821 | 10 | 305 | 0.0 | 3.2 | 0.00 | 1.55 | 0.15 | 96 | 1005.2 |
| 20260506071050 | 10 | 305 | 0.0 | 3.2 | 0.00 | 1.55 | 0.15 | 96 | 1005.2 |
| 20260506070548 | 10 | 305 | 0.0 | 1.6 | 0.00 | 1.55 | 0.15 | 96 | 1005.2 |
| 20260506062040 | 10 | 305 | 0.0 | 1.6 | 0.05 | 1.55 | 0.15 | 96 | 1005.0 |
| 20260506061812 | 10 | 305 | 0.0 | 1.6 | 0.08 | 1.55 | 0.15 | 96 | 1005.0 |
| 20260506061040 | 10 | 304 | 0.0 | 0.0 | 0.10 | 1.55 | 0.15 | 97 | 1004.9 |
| 20260506060540 | 10 | 304 | 0.0 | 0.0 | 0.13 | 1.55 | 0.15 | 97 | 1005.0 |
| 20260506051041 | 10 | 286 | 1.6 | 4.8 | 0.03 | 1.45 | 0.05 | 96 | 1005.1 |
| 20260506050808 | 10 | 306 | 1.6 | 4.8 | 0.00 | 1.45 | 0.03 | 96 | 1005.2 |
| 20260506045040 | 10 | 313 | 0.0 | 3.2 | 0.00 | 1.45 | 0.03 | 96 | 1005.3 |
| 20260506044541 | 10 | 313 | 0.0 | 3.2 | 0.00 | 1.45 | 0.03 | 96 | 1005.2 |
| 20260506044312 | 10 | 309 | 0.0 | 3.2 | 0.00 | 1.45 | 0.03 | 96 | 1005.1 |
| 20260506043537 | 10 | 334 | 0.0 | 1.6 | 0.00 | 1.45 | 0.03 | 96 | 1005.2 |